Date String (YYYY-MM-DD hh:mm:ss) UTC,Instrument flags,Ambient pressure (hPa),Sample flow (lpm),Bypass flow (lpm),Sample temperature (°C),Ambient temperature (°C),ASC tube jacket temperature (°C),LED temperature (°C),Box temperature (°C),Sample RH (%),Span deviation,Mass concentration (μg/m³),Mass concentration (μg/m³),Mass concentration (μg/m³)
DateTimeUTC,F1_M11,P_M11,Q1_M11,Q2_M11,T1_M11,T2_M11,T3_M11,T4_M11,T5_M11,U1_M11,ZSPAN_M11,X2_M11,X0_M11,X1_M11
2022-01-17 19:00:00,,0822.1,5.00,0.00,25.8,25.0,00.0,34.7,27.6,08.5,0000.0,0003.44,0007.96,0003.13
2022-01-17 19:01:00,,0822.1,4.99,0.00,25.8,25.0,00.0,34.7,27.6,08.4,0000.0,0003.48,0008.19,0003.15
2022-01-17 19:02:00,,0822.0,5.02,0.00,25.8,25.0,00.0,34.7,27.6,08.4,0000.0,0003.49,0008.02,0003.18
2022-01-17 19:03:00,,0822.0,4.99,0.00,25.8,25.0,00.0,34.7,27.6,08.4,0000.0,0003.49,0008.22,0003.19
2022-01-17 19:04:00,,0822.0,5.00,0.00,25.8,25.0,00.0,34.7,27.6,08.4,0000.0,0003.51,0008.51,0003.19
2022-01-17 19:05:00,,0822.0,5.01,0.00,25.8,25.0,00.0,34.7,27.7,08.2,0000.0,0003.51,0008.70,0003.19
2022-01-17 19:06:00,,0821.9,5.00,0.00,25.8,25.0,00.0,34.7,27.6,08.1,0000.0,0003.49,0008.87,0003.17
2022-01-17 19:07:00,,0821.9,5.00,0.00,25.8,25.0,00.0,34.7,27.7,07.8,0000.0,0003.46,0008.83,0003.15
2022-01-17 19:08:00,,0821.8,5.00,0.00,25.8,25.0,00.0,34.7,27.7,08.1,0000.0,0003.42,0008.51,0003.12
2022-01-17 19:09:00,,0821.8,4.99,0.00,25.8,25.0,00.0,34.7,27.6,07.9,0000.0,0003.40,0008.64,0003.06
2022-01-17 19:10:00,,0821.8,5.00,0.00,25.8,25.0,00.0,34.8,27.6,07.9,0000.0,0003.38,0009.12,0003.00
2022-01-17 19:11:00,,0821.8,5.00,0.00,25.8,25.0,00.0,34.8,27.6,08.2,0000.0,0003.35,0008.70,0002.93
2022-01-17 19:12:00,,0821.8,5.00,0.00,25.8,25.0,00.0,34.8,27.7,08.1,0000.0,0003.29,0008.34,0002.87
2022-01-17 19:13:00,,0821.8,4.99,0.00,25.8,25.0,00.0,34.8,27.6,08.0,0000.0,0003.25,0008.55,0002.80
2022-01-17 19:14:00,,0821.7,5.01,0.00,25.8,25.0,00.0,34.8,27.6,08.0,0000.0,0003.20,0008.24,0002.74
2022-01-17 19:15:00,,0821.8,5.01,0.00,25.8,25.0,00.0,34.8,27.6,07.7,0000.0,0003.13,0007.80,0002.68
2022-01-17 19:16:00,,0821.8,4.99,0.00,25.8,25.0,00.0,34.8,27.7,07.7,0000.0,0003.07,0006.95,0002.63
2022-01-17 19:17:00,,0822.0,5.00,0.00,25.8,25.0,00.0,34.8,27.6,07.7,0000.0,0003.03,0006.71,0002.59
2022-01-17 19:18:00,,0821.9,5.00,0.00,25.8,25.0,00.0,34.8,27.6,07.6,0000.0,0003.03,0006.66,0002.56
2022-01-17 19:19:00,,0821.9,4.99,0.00,25.8,25.0,00.0,34.8,27.6,09.0,0000.0,0003.07,0006.14,0002.58
2022-01-17 19:20:00,,0821.9,5.01,0.00,25.8,25.0,00.0,34.8,27.6,10.7,0000.0,0003.24,0006.46,0002.77
2022-01-17 19:21:00,,0821.9,5.00,0.00,25.8,25.0,00.0,34.8,27.6,10.4,0000.0,0003.39,0005.87,0002.96
2022-01-17 19:22:00,,0821.8,4.99,0.00,25.8,25.0,00.0,34.8,27.6,09.6,0000.0,0003.48,0006.13,0003.10
2022-01-17 19:23:00,,0821.8,5.01,0.00,25.8,24.9,00.0,34.8,27.6,09.7,0000.0,0003.57,0006.46,0003.18
2022-01-17 19:24:00,,0821.8,5.00,0.00,25.7,24.9,00.0,34.8,27.6,10.1,0000.0,0003.70,0006.54,0003.27
2022-01-17 19:25:00,,0821.9,5.00,0.00,25.7,24.9,00.0,34.8,27.6,09.9,0000.0,0003.83,0006.83,0003.36
2022-01-17 19:26:00,,0821.8,5.01,0.00,25.7,24.9,00.0,34.7,27.6,09.3,0000.0,0003.94,0007.52,0003.44
2022-01-17 19:27:00,,0821.8,5.00,0.00,25.7,24.9,00.0,34.7,27.6,09.0,0000.0,0004.00,0007.59,0003.50
2022-01-17 19:28:00,,0821.9,4.98,0.00,25.7,24.9,00.0,34.7,27.6,09.2,0000.0,0004.09,0007.78,0003.57
2022-01-17 19:29:00,,0821.8,5.01,0.00,25.8,24.9,00.0,34.7,27.6,09.2,0000.0,0004.19,0007.96,0003.64
2022-01-17 19:30:00,,0821.9,4.99,0.00,25.8,25.0,00.0,34.7,27.6,08.9,0000.0,0004.23,0008.30,0003.69
2022-01-17 19:31:00,,0821.8,5.01,0.00,25.8,25.0,00.0,34.7,27.6,08.9,0000.0,0004.17,0008.64,0003.65
2022-01-17 19:32:00,,0821.9,4.99,0.00,25.8,25.0,00.0,34.7,27.6,08.8,0000.0,0004.06,0008.49,0003.59
2022-01-17 19:33:00,,0821.8,5.01,0.00,25.8,25.0,00.0,34.7,27.6,08.7,0000.0,0004.01,0008.55,0003.53
2022-01-17 19:34:00,,0821.8,4.99,0.00,25.8,25.0,00.0,34.7,27.6,08.0,0000.0,0003.97,0008.67,0003.49
2022-01-17 19:35:00,,0821.8,5.01,0.00,25.8,25.0,00.0,34.7,27.6,08.2,0000.0,0003.85,0008.47,0003.42
2022-01-17 19:36:00,,0821.9,5.00,0.00,25.8,25.0,00.0,34.7,27.6,08.2,0000.0,0003.78,0008.33,0003.37
2022-01-17 19:37:00,,0822.0,5.01,0.00,25.8,25.0,00.0,34.8,27.6,08.7,0000.0,0003.74,0008.11,0003.32
2022-01-17 19:38:00,,0822.1,5.00,0.00,25.8,25.0,00.0,34.8,27.6,08.8,0000.0,0003.73,0008.14,0003.30
2022-01-17 19:39:00,,0822.2,4.99,0.00,25.8,25.0,00.0,34.8,27.6,08.2,0000.0,0003.67,0008.02,0003.28
2022-01-17 19:40:00,,0822.2,5.01,0.00,25.8,25.0,00.0,34.8,27.6,08.2,0000.0,0003.59,0007.84,0003.23
2022-01-17 19:41:00,,0822.2,4.99,0.00,25.8,25.0,00.0,34.8,27.7,07.8,0000.0,0003.54,0007.73,0003.19
2022-01-17 19:42:00,,0822.1,4.99,0.00,25.8,25.0,00.0,34.8,27.7,08.0,0000.0,0003.50,0006.81,0003.16
2022-01-17 19:43:00,,0822.1,4.99,0.00,25.8,25.1,00.0,34.8,27.7,06.4,0000.0,0003.42,0006.35,0003.05
2022-01-17 19:44:00,,0822.1,5.00,0.00,25.9,25.1,00.0,34.8,27.7,06.9,0000.0,0003.31,0006.04,0002.90
2022-01-17 19:45:00,,0822.0,5.00,0.00,25.9,25.1,00.0,34.8,27.7,07.9,0000.0,0003.25,0005.29,0002.85
2022-01-17 19:46:00,,0821.9,5.02,0.00,25.9,25.1,00.0,34.8,27.7,08.0,0000.0,0003.24,0005.26,0002.83
2022-01-17 19:47:00,,0821.9,4.99,0.00,25.9,25.1,00.0,34.8,27.7,08.0,0000.0,0003.22,0005.14,0002.81
2022-01-17 19:48:00,,0821.8,5.00,0.00,25.9,25.1,00.0,34.8,27.7,07.9,0000.0,0003.19,0004.90,0002.74
2022-01-17 19:49:00,,0821.8,5.00,0.00,25.9,25.1,00.0,34.8,27.7,08.1,0000.0,0003.16,0005.45,0002.67
2022-01-17 19:50:00,,0821.7,4.99,0.00,25.9,25.1,00.0,34.8,27.7,08.4,0000.0,0003.13,0005.65,0002.60
2022-01-17 19:51:00,,0821.4,5.02,0.00,25.9,25.1,00.0,34.8,27.7,08.3,0000.0,0003.11,0005.65,0002.59
2022-01-17 19:52:00,,0821.4,4.99,0.00,25.9,25.1,00.0,34.8,27.7,07.8,0000.0,0003.10,0005.63,0002.56
2022-01-17 19:53:00,,0821.3,5.01,0.00,25.9,25.1,00.0,34.9,27.7,07.8,0000.0,0003.04,0005.58,0002.52
2022-01-17 19:54:00,,0821.2,4.99,0.00,25.9,25.1,00.0,34.9,27.7,07.6,0000.0,0003.03,0005.69,0002.49
2022-01-17 19:55:00,,0821.2,5.01,0.00,25.9,25.2,00.0,34.9,27.8,07.3,0000.0,0003.06,0005.70,0002.54
2022-01-17 19:56:00,,0821.2,4.99,0.00,26.0,25.2,00.0,34.9,27.8,07.4,0000.0,0003.00,0005.54,0002.48
2022-01-17 19:57:00,,0821.2,5.00,0.00,26.0,25.2,00.0,34.9,27.8,07.3,0000.0,0002.89,0005.42,0002.39
2022-01-17 19:58:00,,0821.2,5.01,0.00,26.0,25.2,00.0,34.9,27.8,07.3,0000.0,0002.78,0005.35,0002.29
2022-01-17 19:59:00,,0821.2,4.98,0.00,26.0,25.2,00.0,34.9,27.8,06.7,0000.0,0002.66,0005.07,0002.20
